sat.trackr.live / text

‹ back to catalog

STARLINK-3937

NORAD 52542 · 2022-051K

PAYLOAD ACTIVE UNKNOWN

§ Identity

Operator
Country
US
Launch date
2022-05-13
Launch site
AFWTR
Launch vehicle
Mass (kg)
RCS (m²)

Purposes: comms

External: N2YO · Heavens-Above · Gunter

§ Orbital elements

Epoch: 2026-05-24T17:22:55.201728Z

Period
95.44 min
Inclination
53.2143°
Eccentricity
0.0001104
Mean motion
15.08835308 rev/d
Perigee alt
539.0 km
Apogee alt
540.5 km
Semi-major
6,917.9 km
B*
2.7481e-5
RAAN
147.7879°
Arg perigee
73.5228°
Mean anomaly
286.5885°
Rev number
22,292

§ Raw data

STARLINK-39371 52542U 22051K   26144.72425002  .00000150  00000+0  27481-4 0  99982 52542  53.2143 147.7879 0001104  73.5228 286.5885 15.08835308222924

JSON: /api/v1/satellites/52542 · /tle

For live sub-satellite position, see the globe view (requires WebGL).

§ Visibility from observer

Set your observer location to see the next 7 days of passes ≥ 10°. The values pass through the URL so the page stays shareable.

No JS? Fill the form by hand. The geolocation button needs JavaScript.